sat.trackr.live / text

‹ back to catalog

STARLINK-37210

NORAD 68557 · 2026-070R

PAYLOAD ACTIVE UNKNOWN

§ Identity

Operator
Country
US
Launch date
2026-04-02
Launch site
AFETR
Launch vehicle
Mass (kg)
RCS (m²)

Purposes: comms

External: N2YO · Heavens-Above · Gunter

§ Orbital elements

Epoch: 2026-09-19T22:43:35.304960Z

Period
93.85 min
Inclination
53.1582°
Eccentricity
0.0001482
Mean motion
15.34396137 rev/d
Perigee alt
461.7 km
Apogee alt
463.7 km
Semi-major
6,840.9 km
B*
2.2486e-4
RAAN
176.2139°
Arg perigee
42.1200°
Mean anomaly
317.9916°
Rev number
2,635

§ Raw data

STARLINK-372101 68557U 26070R   26262.94693640  .00007227  00000+0  22486-3 0  99972 68557  53.1582 176.2139 0001482  42.1200 317.9916 15.34396137 26354

JSON: /api/v1/satellites/68557 · /tle

For live sub-satellite position, see the globe view (requires WebGL).

§ Visibility from observer

Set your observer location to see the next 7 days of passes ≥ 10°. The values pass through the URL so the page stays shareable.

No JS? Fill the form by hand. The geolocation button needs JavaScript.